User: anonymous
Location: Fairmont
(43.6520°N, 94.4610°W)
Time: 03:23:51
(UTC-05:00)
Language:

Cosmos-2242 - Orbit

View from above orbital plane
View from above orbital plane
View from above satellite
View from above satellite

Ground track
Ground track

The orbit data is extracted from the following two-line orbital elements,

1 22626U 93024A   14114.81832651  .00001780  00000-0  20160-3 0   709
2 22626 082.5257 044.2186 0018906 336.5490 023.4862 14.85773053135342
Epoch (UTC): 24 April 2014 19:38:23
Eccentricity: 0.0018906
inclination: 82.5257°
perigee height: 598 km
apogee height: 624 km
right ascension of ascending node: 44.2186°
argument of perigee: 336.5490°
revolutions per day: 14.85773053
mean anomaly at epoch: 23.4862°
orbit number at epoch: 13534

The dashed part of the orbit path shows where the satellite is in the earth's shadow,  

DLR